Elmira, NY

2:14 PM EST on December 05, 2019 (GMT -0500)
Elmira-Corning Regional

Weather History for KELM - June, 2019

Change the Weather History Date:

Saturday, June 1, 2019

  Actual Average Record
Temperature  
Mean Temperature 64 °F -  
Max Temperature 80 °F 75 °F 93 °F (1934)
Min Temperature 50 °F 50 °F 30 °F (2001)
Degree Days  
Heating Degree Days 1    
Growing Degree Days 14 (Base 50)    
Moisture  
Dew Point 55 °F    
Average Humidity 78    
Maximum Humidity 93    
Minimum Humidity 56    
Precipitation  
Precipitation 0.07 in - - ()
Sea Level Pressure  
Sea Level Pressure 29.79 in    
Wind  
Wind Speed 3 mph (WSW)    
Max Wind Speed 13 mph    
Max Gust Speed -    
Visibility 10 miles    
Events Rain    
Averages and records for this station are not official NWS values.
T = Trace of Precipitation, MM = Missing Value Source: NWS Daily Summary

Daily Weather History Graph

Daily Weather History Graph

Search for Another Location

Airport or City:

Astronomy

Jun. 01, 2019 Rise Set
Actual Time 5:34 AM EDT 8:37 PM EDT
Civil Twilight 5:00 AM EDT 9:10 PM EDT
Nautical Twilight 4:17 AM EDT 9:54 PM EDT
Astronomical Twilight 3:26 AM EDT 10:45 PM EDT
Moon 4:41 AM EDT (6/1) 6:45 PM EDT (6/1)
Length of Visible Light 16h 10m
Length of Day
15h 02m
Waning Crescent, 4% of the Moon is Illuminated
Jun 1
Waning Crescent
Jun 3
New
Jun 10
First Quarter
Jun 17
Full
Jun 25
Last Quarter

Hourly Weather History & Observations

Time (EDT) Temp. Dew Point Humidity Pressure Visibility Wind Dir Wind Speed Gust Speed Precip Events Conditions
12:53 AM 50.0 °F 46.0 °F 86% 29.84 in 10.0 mi Calm Calm - N/A   Clear
1:53 AM 50.0 °F 46.9 °F 89% 29.84 in 10.0 mi Calm Calm - N/A   Clear
2:53 AM 50.0 °F 46.9 °F 89% 29.84 in 10.0 mi SSW 4.6 mph - N/A   Clear
3:53 AM 51.1 °F 48.0 °F 89% 29.84 in 10.0 mi NW 3.5 mph - N/A   Overcast
4:53 AM 50.0 °F 48.0 °F 93% 29.83 in 10.0 mi Calm Calm - N/A   Mostly Cloudy
5:53 AM 51.1 °F 48.9 °F 92% 29.83 in 10.0 mi Calm Calm - N/A   Mostly Cloudy
6:53 AM 53.1 °F 50.0 °F 89% 29.83 in 10.0 mi SW 3.5 mph - N/A   Clear
7:53 AM 55.0 °F 50.0 °F 83% 29.83 in 10.0 mi SSW 3.5 mph - 0.00 in Rain Light Rain
8:53 AM 57.9 °F 53.1 °F 84% 29.83 in 10.0 mi Calm Calm - 0.00 in   Scattered Clouds
9:53 AM 60.1 °F 55.0 °F 83% 29.84 in 10.0 mi SSE 3.5 mph - N/A   Mostly Cloudy
10:53 AM 63.0 °F 57.9 °F 84% 29.83 in 10.0 mi Calm Calm - 0.03 in   Partly Cloudy
11:53 AM 66.9 °F 60.1 °F 79% 29.81 in 10.0 mi WSW 3.5 mph - N/A   Clear
12:53 PM 72.0 °F 60.1 °F 66% 29.81 in 10.0 mi WSW 12.7 mph - N/A   Mostly Cloudy
1:53 PM 75.9 °F 62.1 °F 62% 29.77 in 10.0 mi WSW 11.5 mph - N/A   Partly Cloudy
2:53 PM 77.0 °F 61.0 °F 58% 29.75 in 10.0 mi WSW 9.2 mph - N/A   Partly Cloudy
3:53 PM 78.1 °F 61.0 °F 56% 29.73 in 10.0 mi WSW 6.9 mph - N/A   Mostly Cloudy
4:53 PM 78.1 °F 61.0 °F 56% 29.73 in 10.0 mi WNW 3.5 mph - N/A   Clear
5:53 PM 75.9 °F 62.1 °F 62% 29.72 in 10.0 mi Calm Calm - N/A   Partly Cloudy
6:53 PM 73.0 °F 62.1 °F 68% 29.74 in 10.0 mi WSW 12.7 mph - 0.00 in Rain Light Rain
7:53 PM 69.1 °F 59.0 °F 70% 29.75 in 10.0 mi WSW 11.5 mph - 0.01 in Rain Light Rain
8:53 PM 64.0 °F 60.1 °F 87% 29.79 in 10.0 mi West 9.2 mph - 0.03 in Rain Light Rain
9:53 PM 63.0 °F 57.9 °F 84% 29.78 in 10.0 mi WSW 6.9 mph - 0.00 in   Clear
10:53 PM 63.0 °F 57.0 °F 81% 29.73 in 10.0 mi West 5.8 mph - N/A   Mostly Cloudy
11:53 PM 60.1 °F 57.0 °F 90% 29.73 in 10.0 mi Calm Calm - N/A   Partly Cloudy